Beaver Bay, MN

10:26 PM CST on February 07, 2016 (GMT -0600)
Silver Bay Municipal

Weather History for KBFW - October, 2012

Change the Weather History Date:

Friday, October 5, 2012

  Actual Average Record
Temperature  
Mean Temperature 36 °F -  
Max Temperature 41 °F 54 °F 73 °F (1997)
Min Temperature 32 °F 33 °F 21 °F (2003)
Degree Days  
Heating Degree Days 28    
Moisture  
Dew Point 25 °F    
Average Humidity 63    
Maximum Humidity 87    
Minimum Humidity 52    
Precipitation  
Precipitation 0.00 in - - ()
Sea Level Pressure  
Sea Level Pressure 29.85 in    
Wind  
Wind Speed 10 mph (West)    
Max Wind Speed 16 mph    
Max Gust Speed 31 mph    
Visibility 10 miles    
Events Rain , Snow    
Averages and records for this station are not official NWS values.
T = Trace of Precipitation, MM = Missing Value Source: NWS Daily Summary

Daily Weather History Graph

Daily Weather History Graph

Search for Another Location

Airport or City:

Trip Planner

Search our weather history database for the weather conditions in past years. The results will help you decide how hot, cold, wet, or windy it might be!

Date:

Astronomy

Oct. 05, 2012 Rise Set
Actual Time 7:10 AM CDT 6:36 PM CDT
Civil Twilight 6:40 AM CDT 7:06 PM CDT
Nautical Twilight 6:04 AM CDT 7:42 PM CDT
Astronomical Twilight 5:28 AM CDT 8:17 PM CDT
Moon 9:41 PM CDT (10/5) 12:37 PM CDT (10/5)
Length of Visible Light 12h 26m
Length of Day
11h 25m
Waning Gibbous, 74% of the Moon is Illuminated
Oct 5
Waning Gibbous
Oct 8
Last Quarter
Oct 15
New
Oct 21
First Quarter
Oct 29
Full

Hourly Weather History & Observations

Time (CDT) Temp. Windchill Dew Point Humidity Pressure Visibility Wind Dir Wind Speed Gust Speed Precip Events Conditions
12:13 AM 35.6 °F 27.1 °F 24.8 °F 65% 29.80 in 10.0 mi WSW 12.7 mph 26.5 mph N/A   Scattered Clouds
12:33 AM 35.6 °F 27.1 °F 24.8 °F 65% 29.80 in 10.0 mi West 12.7 mph 26.5 mph N/A   Scattered Clouds
12:53 AM 35.6 °F 28.0 °F 24.8 °F 65% 29.80 in 10.0 mi West 10.4 mph 21.9 mph N/A   Scattered Clouds
1:13 AM 35.6 °F 27.5 °F 24.8 °F 65% 29.80 in 10.0 mi West 11.5 mph 26.5 mph N/A   Scattered Clouds
1:33 AM 35.6 °F 25.9 °F 23.0 °F 60% 29.79 in 10.0 mi WSW 16.1 mph 26.5 mph N/A   Clear
1:53 AM 35.6 °F 27.5 °F 23.0 °F 60% 29.80 in 10.0 mi West 11.5 mph 24.2 mph N/A   Clear
2:13 AM 35.6 °F 27.1 °F 23.0 °F 60% 29.79 in 10.0 mi West 12.7 mph 21.9 mph N/A   Clear
2:33 AM 35.6 °F 27.5 °F 23.0 °F 60% 29.80 in 10.0 mi WSW 11.5 mph 25.3 mph N/A   Clear
3:13 AM 35.6 °F 28.0 °F 21.2 °F 56% 29.79 in 10.0 mi WSW 10.4 mph 29.9 mph N/A   Clear
3:33 AM 35.6 °F 27.5 °F 21.2 °F 56% 29.80 in 10.0 mi West 11.5 mph 20.7 mph N/A   Clear
3:53 AM 35.6 °F 28.0 °F 21.2 °F 56% 29.80 in 10.0 mi WSW 10.4 mph 19.6 mph N/A   Clear
4:13 AM 35.6 °F 26.2 °F 21.2 °F 56% 29.80 in 10.0 mi West 15.0 mph 27.6 mph N/A   Clear
4:33 AM 35.6 °F 28.6 °F 21.2 °F 56% 29.80 in 10.0 mi West 9.2 mph 26.5 mph N/A   Scattered Clouds
4:53 AM 35.6 °F 27.1 °F 21.2 °F 56% 29.80 in 10.0 mi West 12.7 mph 23.0 mph N/A   Clear
5:13 AM 35.6 °F 26.2 °F 21.2 °F 56% 29.80 in 10.0 mi West 15.0 mph 25.3 mph N/A   Clear
5:33 AM 35.6 °F 28.0 °F 21.2 °F 56% 29.80 in 10.0 mi West 10.4 mph 31.1 mph N/A   Clear
5:53 AM 33.8 °F 25.8 °F 21.2 °F 60% 29.80 in 10.0 mi West 10.4 mph 21.9 mph N/A   Scattered Clouds
6:13 AM 33.8 °F 27.7 °F 21.2 °F 60% 29.80 in 10.0 mi West 6.9 mph 26.5 mph N/A   Mostly Cloudy
6:33 AM 33.8 °F 25.3 °F 21.2 °F 60% 29.80 in 10.0 mi West 11.5 mph 25.3 mph N/A   Mostly Cloudy
6:53 AM 33.8 °F 25.8 °F 21.2 °F 60% 29.80 in 10.0 mi West 10.4 mph 21.9 mph N/A   Scattered Clouds
7:13 AM 35.6 °F 27.5 °F 21.2 °F 56% 29.80 in 10.0 mi West 11.5 mph 24.2 mph N/A   Scattered Clouds
7:33 AM 35.6 °F 28.0 °F 21.2 °F 56% 29.80 in 10.0 mi West 10.4 mph 26.5 mph N/A   Scattered Clouds
7:54 AM 35.6 °F 26.6 °F 21.2 °F 56% 29.80 in 10.0 mi West 13.8 mph 28.8 mph N/A   Scattered Clouds
8:13 AM 35.6 °F 28.6 °F 21.2 °F 56% 29.81 in 10.0 mi West 9.2 mph 24.2 mph N/A   Scattered Clouds
8:33 AM 35.6 °F 29.2 °F 21.2 °F 56% 29.81 in 10.0 mi West 8.1 mph 18.4 mph N/A   Scattered Clouds
8:54 AM 35.6 °F 26.2 °F 21.2 °F 56% 29.81 in 10.0 mi West 15.0 mph 25.3 mph N/A   Scattered Clouds
9:33 AM 35.6 °F 26.6 °F 21.2 °F 56% 29.82 in 10.0 mi West 13.8 mph 20.7 mph N/A   Scattered Clouds
9:53 AM 35.6 °F 29.9 °F 21.2 °F 56% 29.82 in 10.0 mi West 6.9 mph 19.6 mph N/A   Scattered Clouds
10:13 AM 35.6 °F 28.6 °F 21.2 °F 56% 29.83 in 10.0 mi West 9.2 mph 21.9 mph N/A   Scattered Clouds
10:33 AM 37.4 °F 30.3 °F 23.0 °F 56% 29.83 in 10.0 mi West 10.4 mph 20.7 mph N/A   Scattered Clouds
11:13 AM 37.4 °F 30.3 °F 23.0 °F 56% 29.83 in 10.0 mi West 10.4 mph 20.7 mph N/A   Scattered Clouds
11:33 AM 37.4 °F 30.8 °F 23.0 °F 56% 29.83 in 10.0 mi West 9.2 mph 21.9 mph N/A   Scattered Clouds
11:53 AM 39.2 °F 34.2 °F 23.0 °F 52% 29.83 in 10.0 mi West 6.9 mph 19.6 mph N/A   Clear
12:13 PM 39.2 °F 31.6 °F 23.0 °F 52% 29.83 in 10.0 mi West 12.7 mph 28.8 mph N/A   Clear
12:33 PM 39.2 °F 31.6 °F 24.8 °F 56% 29.83 in 10.0 mi West 12.7 mph 28.8 mph N/A   Clear
12:53 PM 41.0 °F 34.3 °F 24.8 °F 53% 29.83 in 10.0 mi West 11.5 mph 23.0 mph N/A   Clear
1:13 PM 41.0 °F 33.5 °F 24.8 °F 53% 29.84 in 7.0 mi West 13.8 mph 24.2 mph N/A   Clear
1:33 PM 39.2 °F 31.6 °F 26.6 °F 61% 29.84 in 10.0 mi West 12.7 mph 20.7 mph N/A Rain Light Rain
1:53 PM 37.4 °F 30.8 °F 26.6 °F 65% 29.84 in 10.0 mi West 9.2 mph 21.9 mph N/A   Light Drizzle
2:13 PM 37.4 °F 30.3 °F 24.8 °F 60% 29.85 in 10.0 mi West 10.4 mph 19.6 mph N/A   Clear
2:34 PM 37.4 °F 29.8 °F 24.8 °F 60% 29.85 in 10.0 mi West 11.5 mph 24.2 mph N/A   Clear
2:53 PM 39.2 °F 31.6 °F 24.8 °F 56% 29.86 in 10.0 mi WNW 12.7 mph 23.0 mph N/A   Clear
3:13 PM 39.2 °F 32.0 °F 26.6 °F 61% 29.86 in 10.0 mi West 11.5 mph 19.6 mph N/A   Clear
3:33 PM 39.2 °F 32.0 °F 26.6 °F 61% 29.86 in 10.0 mi West 11.5 mph 21.9 mph N/A   Clear
3:53 PM 39.2 °F 33.0 °F 26.6 °F 61% 29.86 in 10.0 mi West 9.2 mph 23.0 mph N/A   Scattered Clouds
4:13 PM 39.2 °F 33.6 °F 26.6 °F 61% 29.86 in 10.0 mi West 8.1 mph 18.4 mph N/A   Clear
4:33 PM 39.2 °F 33.0 °F 26.6 °F 61% 29.87 in 10.0 mi West 9.2 mph - N/A   Clear
4:53 PM 37.4 °F 29.8 °F 26.6 °F 65% 29.87 in 10.0 mi West 11.5 mph 17.3 mph N/A   Clear
5:13 PM 37.4 °F 34.9 °F 26.6 °F 65% 29.88 in 10.0 mi West 3.5 mph - N/A   Clear
5:33 PM 37.4 °F 32.8 °F 26.6 °F 65% 29.89 in 10.0 mi West 5.8 mph - N/A   Clear
5:53 PM 37.4 °F 32.1 °F 26.6 °F 65% 29.89 in 10.0 mi West 6.9 mph 16.1 mph N/A   Clear
6:13 PM 37.4 °F 32.8 °F 28.4 °F 70% 29.90 in 10.0 mi West 5.8 mph - N/A   Clear
6:33 PM 37.4 °F 33.8 °F 28.4 °F 70% 29.90 in 10.0 mi WNW 4.6 mph - N/A   Light Drizzle
6:54 PM 35.6 °F 30.7 °F 28.4 °F 75% 29.91 in 10.0 mi NW 5.8 mph - N/A   Scattered Clouds
7:13 PM 35.6 °F 31.7 °F 28.4 °F 75% 29.92 in 10.0 mi WNW 4.6 mph - N/A   Mostly Cloudy
7:34 PM 35.6 °F 32.8 °F 28.4 °F 75% 29.92 in 10.0 mi NW 3.5 mph - N/A   Mostly Cloudy
7:53 PM 35.6 °F - 28.4 °F 75% 29.93 in 10.0 mi Calm Calm - N/A   Scattered Clouds
8:13 PM 35.6 °F 32.8 °F 28.4 °F 75% 29.94 in 10.0 mi NW 3.5 mph - N/A Rain Light Rain
8:33 PM 35.6 °F - 28.4 °F 75% 29.94 in 10.0 mi Calm Calm - N/A   Light Drizzle
8:53 PM 35.6 °F - 28.4 °F 75% 29.95 in 10.0 mi Calm Calm - N/A   Scattered Clouds
9:13 PM 35.6 °F 30.7 °F 28.4 °F 75% 29.95 in 10.0 mi NW 5.8 mph - N/A   Mostly Cloudy
9:33 PM 35.6 °F 31.7 °F 28.4 °F 75% 29.95 in 10.0 mi NNW 4.6 mph - N/A   Overcast
9:53 PM 35.6 °F 31.7 °F 26.6 °F 70% 29.96 in 10.0 mi NW 4.6 mph - N/A   Overcast
10:13 PM 35.6 °F 32.8 °F 26.6 °F 70% 29.97 in 10.0 mi NNW 3.5 mph - N/A   Scattered Clouds
10:33 PM 35.6 °F 31.7 °F 26.6 °F 70% 29.98 in 5.0 mi North 4.6 mph - N/A   Scattered Clouds
10:53 PM 33.8 °F 28.6 °F 26.6 °F 75% 29.98 in 4.0 mi North 5.8 mph - N/A Snow Light Snow
11:33 PM 32.0 °F - 28.4 °F 87% 29.99 in 10.0 mi Calm Calm - N/A   Mostly Cloudy
11:53 PM 33.8 °F 30.8 °F 28.4 °F 81% 29.99 in 7.0 mi WNW 3.5 mph - N/A   Mostly Cloudy